This demonstration page uses our WeatherBlox Daily Observations layout. Learn more.

Left ArrowRight Arrow

44.8408, -93.29828

Hourly Observations for December 10, 2019

Temp ( °F °C ) Dew Point ( °F °C ) Humidity (%) Winds ( mph kmh ) Pressure ( in mb ) Visibility ( mi km ) Precip ( " mm )
12:53 am 00:53 Clear -2 -18.9 -12 -24.4 62 62 WNW 7 11 30.08 1019 10 16 0.00 0.00
1:53 am 01:53 Clear -3 -19.4 -12 -24.4 65 65 WNW 6 9 30.11 1020 10 16 0.00 0.00
2:53 am 02:53 Clear -3 -19.4 -13 -25 61 61 WNW 7 11 30.14 1021 10 16 0.00 0.00
3:53 am 03:53 Clear -3 -19.4 -12 -24.4 65 65 W 8 13 30.15 1021 10 16 0.00 0.00
4:53 am 04:53 Clear -3 -19.4 -11 -23.9 68 68 W 5 7 30.16 1021 9 14 0.00 0.00
5:53 am 05:53 Cloudy -2 -18.9 -9 -22.8 72 72 WNW 7 11 30.18 1022 10 16 0.00 0.00
6:53 am 06:53 Cloudy 0 -17.8 -7 -21.7 72 72 NW 5 7 30.19 1022 10 16 0.00 0.00
7:53 am 07:53 Mostly Cloudy with Light Snow 1 -17.2 -5 -20.6 75 75 W 9 15 30.22 1023 9 14 0.00 0.00
8:53 am 08:53 Mostly Cloudy with Light Snow 3 -16.1 -3 -19.4 76 76 WNW 8 13 30.24 1024 9 14 0.00 0.00
9:53 am 09:53 Partly Cloudy 3 -16.1 -4 -20 72 72 WNW 15 24 30.27 1025 10 16 0.00 0.00
10:53 am 10:53 Mostly Sunny 5 -15 -4 -20 66 66 NW 14 22 30.28 1025 9 14 0.00 0.00
11:53 am 11:53 Mostly Sunny 6 -14.4 -5 -20.6 60 60 NW 14 22 30.28 1025 10 16 0.00 0.00
12:53 pm 12:53 Mostly Sunny 7 -13.9 -4 -20 60 60 WNW 8 13 30.28 1026 10 16 0.00 0.00
1:53 pm 13:53 Mostly Sunny 6 -14.4 -5 -20.6 60 60 W 12 19 30.29 1026 10 16 0.00 0.00
2:53 pm 14:53 Sunny 6 -14.4 -5 -20.6 60 60 W 15 24 30.30 1026 10 16 0.00 0.00
3:53 pm 15:53 Sunny 4 -15.6 -7 -21.7 60 60 W 10 17 30.32 1027 10 16 0.00 0.00
4:53 pm 16:53 Clear 1 -17.2 -9 -22.8 62 62 W 13 20 30.32 1027 10 16 0.00 0.00
5:53 pm 17:53 Clear -1 -18.3 -10 -23.3 65 65 WSW 8 13 30.32 1027 10 16 0.00 0.00
6:53 pm 18:53 Clear -2 -18.9 -11 -23.9 65 65 W 12 19 30.33 1027 10 16 0.00 0.00
7:53 pm 19:53 Clear -3 -19.4 -11 -23.9 68 68 WSW 7 11 30.32 1027 10 16 0.00 0.00
8:53 pm 20:53 Clear -3 -19.4 -10 -23.3 71 71 SW 8 13 30.30 1026 10 16 0.00 0.00
9:53 pm 21:53 Clear -3 -19.4 -10 -23.3 71 71 SW 7 11 30.30 1026 10 16 0.00 0.00
10:53 pm 22:53 Clear -3 -19.4 -9 -22.8 75 75 S 3 6 30.29 1026 10 16 0.00 0.00
11:53 pm 23:53 Clear -3 -19.4 -9 -22.8 75 75 SSW 3 6 30.28 1026 10 16 0.00 0.00

Powered by AerisWeather